Stations météo

réclame
Mon MeteoGroup
Huelva, Espagne (8383): Température de l'air & dewpoint: 18.01.2018 10:00:00 - 24.01.2018 10:00:00 (CET)Huelva, Espagne (8383): Vitesse du vent: 18.01.2018 10:00:00 - 24.01.2018 10:00:00 (CET)Huelva, Espagne (8383): Direction du vent: 18.01.2018 10:00:00 - 24.01.2018 10:00:00 (CET)Huelva, Espagne (8383): reduced air pressure: 18.01.2018 10:00:00 - 24.01.2018 10:00:00 (CET)Huelva, Espagne (8383): visibility: 18.01.2018 10:00:00 - 24.01.2018 10:00:00 (CET)Huelva, Espagne (8383): Quantités de précipitations: 18.01.2018 10:00:00 - 24.01.2018 10:00:00 (CET)
Date & Time tt [°C] td [°C] ff [km/h] ff [knt] dd ppp [hPa] vv [km] rr [mm]
24.01.2018 10:00:00 5,9 5,8 5 3 NE 1028,5 4,0 -
24.01.2018 09:00:00 3,8 3,8 5 3 NNE 1028,2 13 0,0
24.01.2018 08:00:00 3,6 3,6 4 2 NNE 1027,8 13 0,0
24.01.2018 07:00:00 4,5 4,5 4 2 NE 1027,4 0,5 -
24.01.2018 06:00:00 5,0 5,0 5 3 N 1027,0 0,1 0,0
24.01.2018 05:00:00 6,1 6,1 5 3 NNE 1026,9 0,2 0,0
24.01.2018 04:00:00 6,7 6,7 8 4 N 1027,4 0,2 -
24.01.2018 03:00:00 6,9 6,9 11 6 N 1027,4 0,1 0,0
24.01.2018 02:00:00 7,0 7,0 11 6 N 1027,6 0,2 0,0
24.01.2018 01:00:00 7,2 7,2 11 6 N 1028,0 0,3 -
24.01.2018 00:00:00 7,4 7,4 13 7 NW 1028,0 0,3 0,0
23.01.2018 23:00:00 7,6 7,2 11 6 NW 1028,0 9 0,0
23.01.2018 22:00:00 8,1 7,3 9 5 NW 1027,7 11 -
23.01.2018 21:00:00 8,5 7,6 13 7 NW 1027,9 13 0,0
23.01.2018 20:00:00 9,4 8,0 15 8 NW 1027,8 17 0,0
23.01.2018 19:00:00 11,6 9,0 13 7 NW 1027,4 19 -
23.01.2018 18:00:00 15,2 9,8 11 6 WNW 1026,9 20 0,0
23.01.2018 17:00:00 17,2 10,6 9 5 NW 1026,6 20 0,0
23.01.2018 16:00:00 17,6 10,2 8 4 WNW 1026,6 20 -
23.01.2018 15:00:00 15,6 10,4 4 2 NNW 1026,9 20 0,0
23.01.2018 14:00:00 13,0 10,0 5 3 N 1028,0 20 0,0
23.01.2018 13:00:00 9,5 8,9 8 4 N 1029,0 3,0 -
23.01.2018 12:00:00 8,0 8,0 5 3 N 1029,6 10 0,0
23.01.2018 11:00:00 7,0 7,0 8 4 N 1029,6 2,3 0,0
23.01.2018 10:00:00 6,4 6,4 5 3 N 1029,1 0,3 -
23.01.2018 09:00:00 5,5 5,5 8 4 N 1028,4 0,2 0,0
23.01.2018 08:00:00 6,0 5,7 9 5 N 1027,9 11 0,0
23.01.2018 07:00:00 6,4 6,4 8 4 N 1027,4 15 -
23.01.2018 06:00:00 6,5 6,2 8 4 NNE 1027,3 11 0,0
23.01.2018 05:00:00 7,7 6,9 8 4 N 1027,4 13 0,0
23.01.2018 04:00:00 6,9 6,9 5 3 N 1027,5 15 -
23.01.2018 03:00:00 6,6 6,0 4 2 NE 1027,6 9 0,0
23.01.2018 02:00:00 8,5 7,7 8 4 NNE 1027,7 14 0,0
23.01.2018 01:00:00 8,5 7,9 5 3 NNE 1028,0 14 -
23.01.2018 00:00:00 8,6 7,5 4 2 NE 1028,1 14 0,0
22.01.2018 23:00:00 10,5 8,4 5 3 NNE 1028,0 20 0,0
22.01.2018 22:00:00 10,4 8,5 5 3 WNW 1027,9 20 -
22.01.2018 21:00:00 9,8 8,6 5 3 WNW 1028,3 19 0,0
22.01.2018 20:00:00 10,7 9,0 4 2 WNW 1028,4 20 0,0
22.01.2018 19:00:00 12,0 9,6 13 7 NW 1028,0 20 -
22.01.2018 18:00:00 14,5 10,5 15 8 WNW 1027,6 20 0,0
22.01.2018 17:00:00 16,7 10,8 13 7 WNW 1027,6 20 0,0
22.01.2018 16:00:00 16,9 10,7 13 7 WNW 1027,8 20 -
22.01.2018 15:00:00 16,9 11,2 11 6 NW 1028,1 20 0,0
22.01.2018 14:00:00 16,0 11,0 8 4 NW 1028,9 20 0,0
22.01.2018 13:00:00 13,7 10,7 8 4 NW 1029,9 12 -
22.01.2018 12:00:00 11,2 10,1 9 5 NNW 1030,8 20 0,0
22.01.2018 11:00:00 10,0 9,5 8 4 N 1030,9 18 0,0
22.01.2018 10:00:00 9,6 9,3 9 5 N 1030,7 7 -
22.01.2018 09:00:00 9,7 9,4 8 4 N 1030,4 13 0,0
22.01.2018 08:00:00 9,5 9,4 9 5 N 1029,9 11 0,0
22.01.2018 07:00:00 8,6 8,3 8 4 NNE 1029,7 8 -
22.01.2018 06:00:00 8,9 8,4 8 4 NNE 1029,4 18 0,0
22.01.2018 05:00:00 9,0 8,2 8 4 N 1029,3 19 0,0
22.01.2018 04:00:00 9,4 8,6 9 5 N 1029,6 20 -
22.01.2018 03:00:00 9,4 8,6 8 4 NNE 1030,1 20 0,0
22.01.2018 02:00:00 9,9 9,1 9 5 N 1030,3 20 0,0
22.01.2018 01:00:00 9,8 8,9 5 3 N 1030,7 20 -
22.01.2018 00:00:00 9,9 8,7 8 4 NNE 1031,0 20 0,0
21.01.2018 23:00:00 11,3 9,4 5 3 WNW 1030,8 20 0,0
21.01.2018 22:00:00 12,3 10,0 8 4 NW 1030,7 20 -
21.01.2018 21:00:00 11,9 9,8 8 4 WNW 1030,7 20 0,0
21.01.2018 20:00:00 12,6 9,8 4 2 W 1030,3 20 0,0
21.01.2018 19:00:00 13,7 9,7 9 5 WNW 1029,8 20 -
21.01.2018 18:00:00 16,3 10,4 18 10 WNW 1029,6 20 0,0
21.01.2018 17:00:00 17,9 11,0 15 8 WNW 1029,7 20 0,0
21.01.2018 16:00:00 17,7 10,8 13 7 WNW 1029,9 20 -
21.01.2018 15:00:00 17,1 10,9 13 7 WNW 1030,2 20 0,0
21.01.2018 14:00:00 16,1 10,2 11 6 NW 1031,1 20 0,0
21.01.2018 13:00:00 14,6 9,8 9 5 N 1032,0 20 -
21.01.2018 12:00:00 13,3 10,1 9 5 WNW 1032,7 20 0,0
21.01.2018 11:00:00 10,7 8,6 8 4 N 1032,6 20 0,0
21.01.2018 10:00:00 8,8 7,7 8 4 NNE 1032,1 19 -
21.01.2018 09:00:00 7,4 6,8 8 4 N 1031,7 17 0,0
21.01.2018 08:00:00 7,9 7,1 15 8 N 1031,0 17 0,0
21.01.2018 07:00:00 8,4 7,5 8 4 NNW 1030,6 17 -
21.01.2018 06:00:00 8,3 7,2 9 5 N 1030,2 14 0,0
21.01.2018 05:00:00 9,2 7,8 8 4 WNW 1030,5 16 0,0
21.01.2018 04:00:00 9,5 7,8 9 5 N 1030,8 17 -
21.01.2018 03:00:00 9,8 7,7 13 7 NW 1030,9 18 0,0
21.01.2018 02:00:00 9,9 7,1 5 3 WNW 1031,1 19 0,0
21.01.2018 01:00:00 10,6 7,5 9 5 N 1031,6 20 -
21.01.2018 00:00:00 11,3 7,6 11 6 WNW 1031,5 20 0,0
20.01.2018 23:00:00 11,1 7,2 11 6 WNW 1031,2 20 0,0
20.01.2018 22:00:00 11,1 8,5 9 5 WNW 1031,2 18 -
20.01.2018 21:00:00 10,6 9,2 2 1 NNE 1030,6 3,5 0,0
20.01.2018 20:00:00 11,0 10,1 9 5 SW 1030,2 4,2 0,0
20.01.2018 19:00:00 12,4 10,1 8 4 SSW 1029,6 10 -
20.01.2018 18:00:00 14,4 9,0 9 5 SSW 1029,2 20 0,0
20.01.2018 17:00:00 15,7 8,4 15 8 SSW 1028,9 20 0,0
20.01.2018 16:00:00 16,3 9,5 15 8 SSW 1028,9 19 -
20.01.2018 15:00:00 17,5 9,4 16 9 S 1029,1 19 0,0
20.01.2018 14:00:00 17,8 7,5 4 2 SSW 1029,5 20 0,0
20.01.2018 13:00:00 15,7 7,7 8 4 S 1030,3 20 -
20.01.2018 12:00:00 12,9 8,2 2 1 ENE 1030,7 20 0,0
20.01.2018 11:00:00 9,2 6,5 4 2 ENE 1030,7 20 0,0
20.01.2018 10:00:00 6,1 4,7 5 3 NNE 1030,0 19 -
20.01.2018 09:00:00 3,7 3,1 5 3 NNE 1029,2 10 0,0
20.01.2018 08:00:00 5,6 3,3 5 3 N 1028,6 18 0,0
20.01.2018 07:00:00 6,4 4,9 4 2 NNW 1027,6 20 -
20.01.2018 06:00:00 7,4 6,0 9 5 NNW 1027,0 20 0,0
20.01.2018 05:00:00 5,4 4,5 4 2 NE 1026,9 7 0,0
20.01.2018 04:00:00 5,8 5,4 5 3 NE 1026,7 6 -
20.01.2018 03:00:00 6,2 5,8 8 4 NNE 1026,6 4,7 0,0
20.01.2018 02:00:00 6,9 6,5 8 4 NNE 1026,5 3,6 0,0
20.01.2018 01:00:00 7,9 7,1 4 2 NNE 1026,7 6 -
20.01.2018 00:00:00 8,4 7,6 5 3 NNE 1026,6 7 0,0
19.01.2018 23:00:00 9,4 8,5 8 4 NE 1026,3 8 0,0
19.01.2018 22:00:00 10,8 9,1 4 2 NE 1025,8 16 -
19.01.2018 21:00:00 11,6 10,0 2 1 WSW 1024,8 12 0,0
19.01.2018 20:00:00 12,5 9,9 4 2 SSW 1024,0 15 0,0
19.01.2018 19:00:00 13,4 9,1 5 3 WSW 1023,2 17 -
19.01.2018 18:00:00 15,7 8,9 13 7 S 1022,3 19 0,0
19.01.2018 17:00:00 17,8 8,6 13 7 SSW 1021,8 20 0,0
19.01.2018 16:00:00 20,0 9,8 11 6 S 1021,3 20 -
19.01.2018 15:00:00 19,7 7,4 8 4 W 1021,2 20 0,0
19.01.2018 14:00:00 17,9 7,6 11 6 NW 1021,7 20 0,0
19.01.2018 13:00:00 15,2 7,2 9 5 N 1021,8 15 -
19.01.2018 12:00:00 12,5 7,2 9 5 N 1022,1 20 0,0
19.01.2018 11:00:00 9,7 6,0 13 7 N 1021,8 20 0,0
19.01.2018 10:00:00 8,1 5,6 8 4 NNW 1021,3 11 -
19.01.2018 09:00:00 7,1 5,1 9 5 N 1020,7 20 0,0
19.01.2018 08:00:00 7,8 5,3 9 5 NNW 1020,0 20 0,0
19.01.2018 07:00:00 8,0 5,8 9 5 NW 1019,6 20 -
19.01.2018 06:00:00 6,0 4,8 2 1 SW 1019,4 18 0,0
19.01.2018 05:00:00 7,8 5,4 4 2 NNE 1019,6 20 0,0
19.01.2018 04:00:00 8,5 5,9 4 2 NNE 1019,7 20 -
19.01.2018 03:00:00 8,4 6,2 4 2 SE 1019,7 20 0,0
19.01.2018 02:00:00 10,5 6,6 11 6 NW 1019,4 20 0,0
19.01.2018 01:00:00 11,7 6,4 15 8 NNW 1019,6 20 -
19.01.2018 00:00:00 10,3 7,4 8 4 ESE 1019,8 20 0,0
18.01.2018 23:00:00 12,2 7,9 13 7 N 1019,5 20 0,0
18.01.2018 22:00:00 12,2 7,7 9 5 NNW 1019,5 20 -
18.01.2018 21:00:00 12,4 7,7 4 2 NNW 1019,6 20 0,0
18.01.2018 20:00:00 13,4 7,8 5 3 NW 1019,8 20 0,0
18.01.2018 19:00:00 14,5 7,5 4 2 WNW 1019,8 20 -
18.01.2018 18:00:00 17,5 7,8 5 3 S 1019,5 20 0,0
18.01.2018 17:00:00 18,0 8,0 8 4 ENE 1019,3 20 0,0
18.01.2018 16:00:00 19,4 7,2 13 7 E 1019,3 20 -
18.01.2018 15:00:00 19,6 6,7 13 7 E 1019,6 20 0,0
18.01.2018 14:00:00 18,5 6,3 18 10 E 1020,5 20 0,0
18.01.2018 13:00:00 17,4 6,9 13 7 ENE 1021,6 16 -
18.01.2018 12:00:00 15,4 5,6 11 6 ENE 1022,4 20 0,0
18.01.2018 11:00:00 12,4 5,8 5 3 NE 1022,4 20 0,0
18.01.2018 10:00:00 9,8 4,0 9 5 N 1021,8 15 -

tt = Température de l'air
td = dewpoint
ff = Vitesse du vent
dd = Direction du vent
ppp = reduced air pressure
vv = visibility
rr = Quantités de précipitations

stations d'obs. à proximité